EW2270 Weather Reports


time (UTC)temp
F
wind
direction
speed
knots
gust
knots
rain 1hr
in
rain 24hr
in
rain mn
in
humidity
%
barometer
mb
20260502123034 54 171 0.0 3.5 0.00 0.00 0.00 59 1011.3
20260502121531 55 146 0.9 6.1 0.00 0.00 0.00 54 1011.2
20260502114531 57 196 1.7 2.6 0.00 0.00 0.00 53 1011.2
20260502113025 57 333 3.5 5.2 0.00 0.00 0.00 52 1011.1
20260502111519 62 321 2.6 6.1 0.00 0.00 0.00 44 1011.1
20260502110019 68 142 3.5 9.6 0.00 0.00 0.00 32 1011.2
20260502104521 69 106 1.7 7.0 0.00 0.00 0.00 30 1011.3
20260502103016 68 207 1.7 5.2 0.00 0.00 0.00 31 1011.2
20260502101515 69 109 7.0 12.2 0.00 0.00 0.00 31 1011.2
20260502091512 70 121 4.3 10.4 0.00 0.00 0.00 30 1011.3
20260502070108 66 226 0.9 4.3 0.00 0.00 0.00 38 1011.5
20260502064620 66 271 2.6 4.3 0.00 0.00 0.00 36 1011.5
20260502063117 65 253 2.6 7.0 0.00 0.00 0.00 38 1011.5
20260502061555 67 245 0.9 2.6 0.00 0.00 0.00 36 1011.5
20260502060053 68 187 1.7 5.2 0.00 0.00 0.00 33 1011.6
20260502054553 69 267 3.5 7.8 0.00 0.00 0.00 32 1011.6
20260502053058 69 231 1.7 4.3 0.00 0.00 0.00 33 1011.7
20260502051551 69 234 2.6 5.2 0.00 0.00 0.00 32 1011.8
20260502050150 70 141 1.7 7.8 0.00 0.00 0.00 32 1011.7
20260502044556 70 290 1.7 6.1 0.00 0.00 0.00 30 1011.7
20260502043122 71 148 4.3 9.6 0.00 0.00 0.00 30 1011.6
20260502041559 71 98 0.9 6.1 0.00 0.00 0.00 33 1011.7
20260502040048 71 55 6.1 9.6 0.00 0.00 0.00 37 1011.7
20260502034549 71 70 6.1 11.3 0.00 0.00 0.00 38 1011.7
20260502033048 71 37 5.2 13.0 0.00 0.00 0.00 39 1011.7
20260502031547 71 43 6.1 12.2 0.00 0.00 0.00 38 1011.7
20260502030049 71 40 11.3 15.6 0.00 0.00 0.00 36 1011.5
20260502024544 72 47 10.4 14.8 0.00 0.00 0.00 35 1011.5
20260502023043 69 40 6.1 10.4 0.00 0.00 0.00 41 1011.4
20260502021542 70 78 7.0 10.4 0.00 0.00 0.00 41 1011.4
20260502020042 70 53 7.8 11.3 0.00 0.00 0.00 43 1011.4
20260502014541 71 51 6.1 8.7 0.00 0.00 0.00 42 1011.4
20260502013048 72 49 5.2 8.7 0.00 0.00 0.00 42 1011.5
20260502011539 73 52 4.3 8.7 0.00 0.00 0.00 42 1011.7
20260502010038 73 13 7.0 11.3 0.00 0.00 0.00 42 1011.7
20260502004542 74 11 7.0 11.3 0.00 0.00 0.00 41 1011.7
20260502003033 75 2 8.7 13.0 0.00 0.00 0.00 37 1011.8
20260502001533 77 8 10.4 15.6 0.00 0.00 0.00 36 1012.0
20260502000030 77 20 9.6 14.8 0.00 0.00 0.00 34 1012.1
20260501234529 77 338 9.6 15.6 0.00 0.00 0.00 34 1012.2
20260501233027 77 33 9.6 14.8 0.00 0.00 0.00 35 1012.3
20260501231523 77 11 9.6 13.9 0.00 0.00 0.00 33 1012.6
20260501230025 76 49 10.4 13.9 0.00 0.00 0.00 33 1012.8
20260501224520 77 23 10.4 15.6 0.00 0.00 0.00 30 1012.9
20260501223016 77 345 10.4 14.8 0.00 0.00 0.00 32 1013.2
20260501221514 76 351 9.6 14.8 0.00 0.00 0.00 34 1013.4
20260501220014 77 30 10.4 14.8 0.00 0.00 0.00 33 1013.6
20260501214511 78 35 7.8 16.5 0.00 0.00 0.00 35 1013.9
20260501213008 78 11 8.7 12.2 0.00 0.00 0.00 33 1013.9
20260501211507 78 292 2.6 9.6 0.00 0.00 0.00 26 1014.2
20260501210005 78 320 3.5 7.8 0.00 0.00 0.00 27 1014.3
20260501204502 77 335 2.6 7.8 0.00 0.00 0.00 23 1014.4
20260501203100 78 315 2.6 6.1 0.00 0.00 0.00 26 1014.5
20260501201558 77 360 5.2 9.6 0.00 0.00 0.00 26 1014.7
20260501200057 76 248 1.7 9.6 0.00 0.00 0.00 29 1014.8
20260501194556 76 52 1.7 9.6 0.00 0.00 0.00 32 1014.9
20260501193055 75 80 2.6 7.8 0.00 0.00 0.00 26 1015.0
20260501191551 76 23 6.1 10.4 0.00 0.00 0.00 28 1015.2
20260501190049 75 31 4.3 8.7 0.00 0.00 0.00 29 1015.2
20260501184551 74 53 2.6 7.0 0.00 0.00 0.00 30 1015.4
20260501183050 73 347 3.5 5.2 0.00 0.00 0.00 33 1015.5
20260501181541 73 19 1.7 4.3 0.00 0.00 0.00 40 1015.7
20260501180040 72 339 0.9 4.3 0.00 0.00 0.00 41 1015.8
20260501174535 70 326 1.7 5.2 0.00 0.00 0.00 40 1016.1
20260501173031 68 360 1.7 5.2 0.00 0.00 0.00 45 1016.3
20260501171546 67 11 2.6 5.2 0.00 0.00 0.00 45 1016.3
20260501170025 66 311 1.7 4.3 0.00 0.00 0.00 49 1016.3
20260501164521 64 316 1.7 4.3 0.00 0.00 0.00 49 1016.4
20260501163017 63 290 1.7 3.5 0.00 0.00 0.00 55 1016.6
20260501161515 60 290 0.9 3.5 0.00 0.00 0.00 60 1016.6
20260501160016 59 302 0.9 2.6 0.00 0.00 0.00 62 1016.8
20260501154510 58 262 0.0 2.6 0.00 0.00 0.00 62 1016.9
20260501153004 56 345 0.0 1.7 0.00 0.00 0.00 65 1016.8
20260501151501 54 352 1.7 2.6 0.00 0.00 0.00 67 1016.8
20260501150057 53 352 0.9 2.6 0.00 0.00 0.00 68 1016.8
20260501144600 51 100 0.0 2.6 0.00 0.00 0.00 76 1016.9
20260501143101 49 100 0.0 0.9 0.00 0.00 0.00 77 1016.8
20260501141554 48 100 0.0 0.9 0.00 0.00 0.00 82 1016.7
20260501140047 49 100 0.0 0.9 0.00 0.00 0.00 76 1016.6